Location: El Carrer d�Abaix
(41.5797°N, 2.1791°E)
Time: 23:00:01
(UTC+00:00)

STARLINK-1378 - Pass Details

Date: 10 October 2020
Orbit: 548 x 551 km, 53.0° (Epoch: 27 October)

Event Time Altitude Azimuth Distance (km) Brightness Sun altitude
Exits shadow 04:08:56 15° 340° (NNW) 1,527 5.8 -21.2°
Maximum altitude 04:10:45 19° 12° (NNE) 1,332 5.8 -20.8°
Drops below altitude 10° 04:13:47 10° 60° (ENE) 1,826 7.3 -20.3°
Sets 04:16:32 0° 78° (ENE) 2,719 8.8 -19.7°
